This demonstration page uses our WeatherBlox Daily Observations layout. Learn more.

Left ArrowRight Arrow

Hourly Observations for February 14, 2016

Temp ( °F °C ) Dew Point ( °F °C ) Humidity (%) Winds ( mph kmh ) Pressure ( in mb ) Visibility ( mi km ) Precip ( " mm )
12:53 am 00:53 Clear 54 12.2 45 7.2 72 72 Calm 30.27 1025 10 16 0.00 0.00
1:53 am 01:53 Clear 51 10.6 43 6.1 74 74 N 5 7 30.26 1025 10 16 0.00 0.00
2:53 am 02:53 Clear 51 10.6 43 6.1 74 74 N 3 6 30.28 1026 10 16 0.00 0.00
3:53 am 03:53 Clear 49 9.4 42 5.6 77 77 Calm 30.28 1025 10 16 0.00 0.00
4:53 am 04:53 Clear 49 9.4 42 5.6 77 77 Calm 30.28 1025 10 16 0.00 0.00
5:53 am 05:53 Clear 46 7.8 41 5 83 83 Calm 30.26 1025 10 16 0.00 0.00
6:53 am 06:53 Clear 48 8.9 42 5.6 80 80 Calm 30.28 1026 10 16 0.00 0.00
7:53 am 07:53 Sunny 49 9.4 43 6.1 80 80 WNW 5 7 30.29 1026 10 16 0.00 0.00
8:53 am 08:53 Mostly Sunny 55 12.8 43 6.1 64 64 NNE 3 6 30.29 1026 10 16 0.00 0.00
9:53 am 09:53 Sunny 60 15.6 45 7.2 58 58 Calm 30.31 1026 10 16 0.00 0.00
10:53 am 10:53 Sunny 65 18.3 44 6.7 47 47 Calm 30.31 1026 10 16 0.00 0.00
11:53 am 11:53 Sunny 67 19.4 46 7.8 47 47 Calm 30.30 1026 10 16 0.00 0.00
12:53 pm 12:53 Sunny 71 21.7 47 8.3 42 42 N 3 6 30.28 1025 10 16 0.00 0.00
1:53 pm 13:53 Mostly Sunny 75 23.9 48 8.9 39 39 NNW 6 9 30.25 1025 10 16 0.00 0.00
2:53 pm 14:53 Mostly Sunny 77 25 47 8.3 35 35 N 9 15 30.24 1024 10 16 0.00 0.00
3:53 pm 15:53 Sunny 76 24.4 47 8.3 36 36 N 9 15 30.24 1024 10 16 0.00 0.00
4:53 pm 16:53 Sunny 75 23.9 48 8.9 39 39 N 13 20 30.24 1024 10 16 0.00 0.00
5:53 pm 17:53 Clear 73 22.8 48 8.9 41 41 NNW 10 17 30.24 1024 10 16 0.00 0.00
6:53 pm 18:53 Clear 71 21.7 47 8.3 42 42 N 9 15 30.26 1025 10 16 0.00 0.00
7:53 pm 19:53 Clear 69 20.6 48 8.9 47 47 N 9 15 30.28 1025 10 16 0.00 0.00
8:53 pm 20:53 Clear 66 18.9 48 8.9 52 52 N 8 13 30.29 1026 10 16 0.00 0.00
9:53 pm 21:53 Clear 60 15.6 48 8.9 65 65 NNW 6 9 30.29 1026 10 16 0.00 0.00
10:53 pm 22:53 Clear 60 15.6 48 8.9 65 65 NNW 5 7 30.29 1026 10 16 0.00 0.00
11:53 pm 23:53 Clear 59 15 48 8.9 67 67 NNW 7 11 30.30 1026 10 16 0.00 0.00

Powered by AerisWeather